Flag for Brazil Weather past 2 weeks in Cuiabá, Mato Grosso, Brazil

Now
91 °F

Passing clouds.


Feels Like: 91 °F
Forecast: 76 / 96 °F
Wind: 6 mph from Southwest

Location: Cuiaba Aeroporto

Current Time: Aug 27, 2015 at 3:49:58 PM

Latest Report: Aug 27, 2015 at 3:00 PM


Visibility: N/A

Pressure: 29.86 "Hg

Humidity: 34%

Dew point: 59 °F

Location of CuiabáLocation

Historic Weather in Cuiabá — Graph

°F

Cuiabá temperature yesterday

Maximum temperature yesterday: 104 °F (at 1:00 PM)
Minimum temperature yesterday: 73 °F (at 6:00 AM)
Average temperature yesterday: 88 °F

Past Weeks' High & Low Weather Summary

 TemperatureHumidityPressure
High104 °F (Aug 26, 1:00 PM)89% (Aug 26, 3:00 PM)30.07 "Hg (Aug 26, 3:00 PM)
Low63 °F (Aug 14, 5:00 AM)12% (Aug 13, 3:00 PM)29.74 "Hg (Aug 26, 4:00 PM)
Average83 °F44%29.92 "Hg
* Reported Aug 12 2:00 PM — Aug 27 2:00 PM, Cuiabá, Weather by CustomWeather, © 2015

Note: Actual official high and low records may vary slightly from our data, if they occured in-between our weather recording intervals... More about our weather records

Advertising

Cuiabá weather history for previous 24 hours

 ConditionsComfort  
Time TempWeatherWind HumidityBarometerVisibility
2:00 PM
Thu, Aug 27
91 °FSunny.6 mph34%29.92 "Hg10 mi
1:00 PM88 °FPassing clouds.13 mph40%29.95 "HgN/A
12:00 PM91 °FSunny.9 mph34%29.98 "Hg10 mi
11:00 AM88 °FSunny.2 mph35%30.04 "Hg10 mi
10:00 AM84 °FSunny.6 mph48%30.04 "Hg10 mi
9:00 AM79 °FSunny.13 mph65%30.04 "Hg10 mi
8:00 AM81 °FSunny.10 mph62%30.04 "Hg10 mi
7:00 AM82 °FClear.9 mph55%29.98 "Hg5 mi
6:00 AM77 °FSunny.6 mph61%29.86 "Hg10 mi
5:00 AM79 °FClear.6 mph58%29.86 "Hg10 mi
4:00 AM79 °FClear.9 mph58%29.86 "Hg10 mi
3:00 AM79 °FClear.7 mph58%29.86 "Hg10 mi
2:00 AM79 °FClear.5 mph61%29.89 "Hg10 mi
1:00 AM82 °FClear.7 mph51%29.89 "Hg10 mi
12:00 AM84 °FClear.7 mph51%29.86 "Hg10 mi
11:00 PM
Wed, Aug 26
86 °FClear.8 mph46%29.86 "Hg10 mi
10:00 PM88 °FClear.14 mph43%29.86 "Hg10 mi
9:00 PM90 °FClear.13 mph41%29.86 "Hg10 mi
8:00 PM90 °FClear.5 mph31%29.80 "Hg10 mi
7:00 PM91 °FClear.5 mph30%29.80 "Hg10 mi
6:00 PM93 °FClear.5 mph26%29.77 "Hg10 mi
5:00 PM100 °FSunny.10 mph20%29.74 "Hg10 mi
4:00 PM102 °FSunny.14 mph18%29.74 "Hg10 mi
3:00 PM75 °FSunny.6 mph89%29.83 "Hg10 mi
Weather by CustomWeather, © 2015

See weather overviewHow to use our weather pages